Location: Ch�tillon
(48.8024°N, 2.2935°E)
Time: 22:02:54
(UTC+00:00)

DIWATA 2B (PO-101) - Pass Details

Date: 05 July 2022
Orbit: 583 x 599 km, 98.0° (Epoch: 16 August)

Event Time Altitude Azimuth Distance (km) Brightness Sun altitude
Exits shadow 00:36:27 - 122° (ESE) 2,146 ? -17.8°
Reaches altitude 10° 00:37:03 10° 118° (ESE) 1,940 ? -17.8°
Maximum altitude 00:40:27 24° 64° (ENE) 1,248 ? -17.7°
Drops below altitude 10° 00:43:53 10° 10° (N) 1,951 ? -17.6°
Sets 00:46:21 0° 357° (N) 2,858 ? -17.5°
